Zurück zum Katalog

FENGYUN 1C DEB

AktivSSO
NORAD 31913·DEBRIS·🇨🇳 China

Gestartet May 10, 1999 von Taiyuan Satellite Launch Center

Loading…

Nächste Überflüge (nächste 24 Stunden)

TLE

AlterndSource: Space-Track

Epoche: Sep 4, 2026, 00:58 UTC

1 31913U 99025CLQ 26247.04090319  .00001059  00000-0  72332-3 0  9994
2 31913  99.2843 173.9846 0192116 312.9975  45.5221 13.93569919595797

Verfolge FENGYUN 1C DEB in Echtzeit mit AllMySat

Download on the App Store